Torna al catalogo

STARLINK-32827

AttivoComunicazioniVLEO
NORAD 63043·PAYLOAD·🇺🇸 United States

Lanciato Feb 18, 2025 da Cape Canaveral Space Force Station

Loading…

Prossimi Passaggi (prossime 24 ore)

TLE

AggiornatoSource: CelesTrak SupGP

Epoca: Sep 14, 2026, 21:05 UTC

1 63043C 25034Q   26257.87895833 -.00049103  00000+0 -14508-2 0  2578
2 63043  53.1574 108.3372 0001306  87.4988   6.3042 15.34413395    15

Traccia STARLINK-32827 in tempo reale con AllMySat

Download on the App Store